Lowell Highlands, Ma

10 Minute Time Series

23-Nov-2017 01:30 PM

TimeTempHumidityDewpointBarometerWindSpeedWindGustWind DirRain
23-Nov-2017 12:10 AM35.7°F67%25.8°F29.935 inHg6 mph14 mph300° (WNW)0.00 in
23-Nov-2017 12:20 AM35.6°F67%25.7°F29.937 inHg5 mph14 mph301° (WNW)0.00 in
23-Nov-2017 12:30 AM35.3°F67%25.5°F29.945 inHg4 mph11 mph298° (WNW)0.00 in
23-Nov-2017 12:40 AM35.1°F65%24.5°F29.942 inHg6 mph14 mph312° (NW)0.00 in
23-Nov-2017 12:50 AM34.9°F65%24.3°F29.946 inHg6 mph16 mph318° (NW)0.00 in
23-Nov-2017 01:00 AM34.7°F65%24.2°F29.943 inHg6 mph16 mph312° (NW)0.00 in
23-Nov-2017 01:10 AM34.4°F66%24.2°F29.950 inHg3 mph13 mph314° (NW)0.00 in
23-Nov-2017 01:20 AM34.2°F66%24.0°F29.951 inHg4 mph10 mph309° (NW)0.00 in
23-Nov-2017 01:30 AM34.0°F66%23.9°F29.951 inHg4 mph11 mph323° (NW)0.00 in
23-Nov-2017 01:40 AM33.7°F67%23.9°F29.960 inHg3 mph11 mph301° (WNW)0.00 in
23-Nov-2017 01:50 AM33.6°F67%23.8°F29.959 inHg4 mph9 mph311° (NW)0.00 in
23-Nov-2017 02:00 AM33.4°F68%24.0°F29.961 inHg5 mph10 mph313° (NW)0.00 in
23-Nov-2017 02:10 AM33.1°F68%23.7°F29.964 inHg3 mph10 mph303° (WNW)0.00 in
23-Nov-2017 02:20 AM33.0°F69%24.0°F29.966 inHg2 mph10 mph311° (NW)0.00 in
23-Nov-2017 02:30 AM32.6°F70%23.9°F29.975 inHg1 mph10 mph267° (W)0.00 in
23-Nov-2017 02:40 AM32.2°F71%23.9°F29.973 inHg1 mph3 mph268° (W)0.00 in
23-Nov-2017 02:50 AM31.8°F72%23.8°F29.972 inHg2 mph4 mph322° (NW)0.00 in
23-Nov-2017 03:00 AM31.5°F73%23.9°F29.970 inHg1 mph4 mph300° (WNW)0.00 in
23-Nov-2017 03:10 AM31.2°F74%23.9°F29.965 inHg2 mph5 mph323° (NW)0.00 in
23-Nov-2017 03:20 AM31.1°F75%24.1°F29.967 inHg2 mph5 mph318° (NW)0.00 in
23-Nov-2017 03:30 AM31.0°F75%24.0°F29.965 inHg2 mph5 mph323° (NW)0.00 in
23-Nov-2017 03:40 AM30.8°F75%23.8°F29.975 inHg2 mph7 mph296° (WNW)0.00 in
23-Nov-2017 03:50 AM30.6°F76%24.0°F29.978 inHg1 mph7 mph292° (WNW)0.00 in
23-Nov-2017 04:00 AM30.4°F76%23.8°F29.980 inHg1 mph3 mph298° (WNW)0.00 in
23-Nov-2017 04:10 AM30.2°F76%23.6°F29.981 inHg1 mph2 mph285° (WNW)0.00 in
23-Nov-2017 04:20 AM30.0°F77%23.7°F29.981 inHg1 mph4 mph332° (NNW)0.00 in
23-Nov-2017 04:30 AM30.1°F76%23.5°F29.979 inHg4 mph9 mph311° (NW)0.00 in
23-Nov-2017 04:40 AM30.3°F75%23.3°F29.982 inHg3 mph9 mph316° (NW)0.00 in
23-Nov-2017 04:50 AM30.4°F73%22.8°F29.990 inHg5 mph9 mph309° (NW)0.00 in
23-Nov-2017 05:00 AM30.6°F70%22.0°F29.991 inHg4 mph13 mph319° (NW)0.00 in
23-Nov-2017 05:10 AM30.4°F71%22.1°F30.000 inHg2 mph13 mph287° (WNW)0.00 in
23-Nov-2017 05:20 AM30.3°F71%22.0°F30.013 inHg3 mph11 mph269° (W)0.00 in
23-Nov-2017 05:30 AM30.1°F72%22.2°F30.018 inHg2 mph11 mph299° (WNW)0.00 in
23-Nov-2017 05:40 AM29.8°F73%22.2°F30.017 inHg1 mph5 mph307° (NW)0.00 in
23-Nov-2017 05:50 AM29.6°F74%22.3°F30.019 inHg2 mph4 mph310° (NW)0.00 in
23-Nov-2017 06:00 AM29.4°F74%22.2°F30.023 inHg1 mph4 mph253° (WSW)0.00 in
23-Nov-2017 06:10 AM29.1°F74%21.9°F30.020 inHg2 mph7 mph297° (WNW)0.00 in
23-Nov-2017 06:20 AM29.2°F73%21.6°F30.025 inHg4 mph9 mph306° (NW)0.00 in
23-Nov-2017 06:30 AM29.2°F72%21.3°F30.035 inHg2 mph9 mph295° (WNW)0.00 in
23-Nov-2017 06:40 AM29.3°F71%21.1°F30.030 inHg3 mph7 mph312° (NW)0.00 in
23-Nov-2017 06:50 AM29.4°F70%20.8°F30.031 inHg4 mph7 mph305° (NW)0.00 in
23-Nov-2017 07:00 AM29.4°F70%20.8°F30.024 inHg4 mph9 mph325° (NW)0.00 in
23-Nov-2017 07:10 AM29.4°F70%20.8°F30.025 inHg4 mph9 mph326° (NNW)0.00 in
23-Nov-2017 07:20 AM29.4°F69%20.5°F30.021 inHg5 mph10 mph324° (NW)0.00 in
23-Nov-2017 07:30 AM29.6°F69%20.7°F30.020 inHg5 mph11 mph318° (NW)0.00 in
23-Nov-2017 07:40 AM29.7°F69%20.8°F30.020 inHg4 mph11 mph333° (NNW)0.00 in
23-Nov-2017 07:50 AM30.0°F69%21.1°F30.018 inHg4 mph8 mph327° (NNW)0.00 in
23-Nov-2017 08:00 AM30.2°F68%20.9°F30.016 inHg4 mph8 mph326° (NNW)0.00 in
23-Nov-2017 08:10 AM30.4°F67%20.8°F30.018 inHg5 mph10 mph314° (NW)0.00 in
23-Nov-2017 08:20 AM30.6°F67%21.0°F30.021 inHg4 mph10 mph318° (NW)0.00 in
23-Nov-2017 08:30 AM31.0°F66%21.0°F30.022 inHg4 mph10 mph328° (NNW)0.00 in
23-Nov-2017 08:40 AM31.2°F64%20.5°F30.022 inHg5 mph11 mph311° (NW)0.00 in
23-Nov-2017 08:50 AM31.6°F64%20.8°F30.021 inHg4 mph11 mph316° (NW)0.00 in
23-Nov-2017 09:00 AM31.9°F63%20.8°F30.022 inHg4 mph10 mph311° (NW)0.00 in
23-Nov-2017 09:10 AM32.1°F61%20.2°F30.018 inHg4 mph10 mph310° (NW)0.00 in
23-Nov-2017 09:20 AM32.5°F60%20.2°F30.017 inHg4 mph10 mph333° (NNW)0.00 in
23-Nov-2017 09:30 AM32.9°F60%20.6°F30.016 inHg5 mph11 mph320° (NW)0.00 in
23-Nov-2017 09:40 AM33.1°F59%20.4°F30.012 inHg6 mph14 mph323° (NW)0.00 in
23-Nov-2017 09:50 AM33.4°F57%19.8°F30.011 inHg6 mph14 mph309° (NW)0.00 in
23-Nov-2017 10:00 AM33.9°F56%19.9°F30.013 inHg4 mph11 mph309° (NW)0.00 in
23-Nov-2017 10:10 AM34.3°F54%19.4°F30.008 inHg4 mph9 mph321° (NW)0.00 in
23-Nov-2017 10:20 AM34.6°F53%19.2°F30.007 inHg5 mph11 mph313° (NW)0.00 in
23-Nov-2017 10:30 AM34.7°F52%18.9°F30.010 inHg6 mph16 mph323° (NW)0.00 in
23-Nov-2017 10:40 AM35.0°F51%18.7°F30.011 inHg6 mph16 mph322° (NW)0.00 in
23-Nov-2017 10:50 AM35.6°F50%18.8°F30.010 inHg4 mph11 mph313° (NW)0.00 in
23-Nov-2017 11:00 AM36.2°F51%19.8°F30.010 inHg4 mph10 mph291° (WNW)0.00 in
23-Nov-2017 11:10 AM36.5°F49%19.2°F29.998 inHg5 mph10 mph316° (NW)0.00 in
23-Nov-2017 11:20 AM37.0°F48%19.2°F29.998 inHg4 mph11 mph292° (WNW)0.00 in
23-Nov-2017 11:30 AM37.3°F48%19.4°F29.996 inHg4 mph11 mph311° (NW)0.00 in
23-Nov-2017 11:40 AM37.9°F47%19.5°F29.993 inHg3 mph9 mph311° (NW)0.00 in
23-Nov-2017 11:50 AM38.0°F47%19.6°F29.988 inHg4 mph11 mph314° (NW)0.00 in
23-Nov-2017 12:00 PM38.5°F45%19.0°F29.986 inHg4 mph11 mph300° (WNW)0.00 in
23-Nov-2017 12:10 PM38.4°F45%18.9°F29.984 inHg5 mph10 mph320° (NW)0.00 in
23-Nov-2017 12:20 PM38.9°F45%19.4°F29.982 inHg3 mph10 mph274° (W)0.00 in
23-Nov-2017 12:30 PM39.6°F44%19.5°F29.978 inHg4 mph9 mph270° (W)0.00 in
23-Nov-2017 12:40 PM39.8°F43%19.1°F29.977 inHg3 mph10 mph280° (W)0.00 in
23-Nov-2017 12:50 PM39.9°F43%19.2°F29.977 inHg4 mph10 mph291° (WNW)0.00 in
23-Nov-2017 01:00 PM40.2°F42%19.0°F29.975 inHg3 mph7 mph308° (NW)0.00 in
23-Nov-2017 01:10 PM40.5°F40%18.1°F29.975 inHg4 mph9 mph315° (NW)0.00 in
23-Nov-2017 01:20 PM40.4°F41%18.6°F29.974 inHg3 mph9 mph309° (NW)0.00 in
23-Nov-2017 01:30 PM40.8°F41%18.9°F29.971 inHg3 mph8 mph296° (WNW)0.00 in